Baker, MT

5:33 AM MST on February 27, 2017 (GMT -0700)
Baker Municipal

Weather History for KBHK - October, 2014

Change the Weather History Date:

Sunday, October 5, 2014

  Actual Average Record
Temperature  
Mean Temperature 50 °F -  
Max Temperature 64 °F 45 °F 84 °F (2011)
Min Temperature 39 °F 23 °F 16 °F (2005)
Degree Days  
Heating Degree Days 14    
Moisture  
Dew Point 39 °F    
Average Humidity 64    
Maximum Humidity 93    
Minimum Humidity 39    
Precipitation  
Precipitation 0.00 in - - ()
Sea Level Pressure  
Sea Level Pressure 29.83 in    
Wind  
Wind Speed 15 mph (WNW)    
Max Wind Speed 33 mph    
Max Gust Speed 44 mph    
Visibility 10 miles    
Events Rain    
Averages and records for this station are not official NWS values.
T = Trace of Precipitation, MM = Missing Value Source: NWS Daily Summary

Daily Weather History Graph

Daily Weather History Graph

Search for Another Location

Airport or City:

Trip Planner

Search our weather history database for the weather conditions in past years. The results will help you decide how hot, cold, wet, or windy it might be!

Date:

Astronomy

Oct. 05, 2014 Rise Set
Actual Time 7:00 AM MDT 6:29 PM MDT
Civil Twilight 6:30 AM MDT 6:59 PM MDT
Nautical Twilight 5:56 AM MDT 7:33 PM MDT
Astronomical Twilight 5:20 AM MDT 8:08 PM MDT
Moon 4:56 PM MDT (10/5) 3:30 AM MDT (10/5)
Length of Visible Light 12h 28m
Length of Day
11h 28m
Waxing Gibbous, 90% of the Moon is Illuminated
Oct 5
Waxing Gibbous
Oct 8
Full
Oct 15
Last Quarter
Oct 23
New
Oct 30
First Quarter

Hourly Weather History & Observations

Time (MDT) Temp. Windchill Dew Point Humidity Pressure Visibility Wind Dir Wind Speed Gust Speed Precip Events Conditions
12:51 AM 42.1 °F 37.7 °F 37.9 °F 85% 29.85 in 10.0 mi West 6.9 mph - N/A   Scattered Clouds
1:51 AM 39.0 °F 34.8 °F 37.0 °F 93% 29.85 in 10.0 mi West 5.8 mph - N/A   Clear
2:51 AM 41.0 °F 34.3 °F 37.9 °F 89% 29.84 in 10.0 mi West 11.5 mph - N/A   Clear
3:51 AM 45.0 °F 38.9 °F 41.0 °F 86% 29.83 in 10.0 mi West 12.7 mph - N/A   Mostly Cloudy
4:51 AM 46.0 °F 40.2 °F 42.1 °F 86% 29.82 in 10.0 mi West 12.7 mph - N/A   Overcast
5:51 AM 48.9 °F - 42.1 °F 77% 29.81 in 10.0 mi West 13.8 mph - N/A   Overcast
6:51 AM 48.9 °F - 43.0 °F 80% 29.82 in 10.0 mi WNW 16.1 mph - N/A   Scattered Clouds
7:51 AM 50.0 °F - 44.1 °F 80% 29.83 in 10.0 mi WNW 16.1 mph - N/A   Overcast
8:51 AM 52.0 °F - 43.0 °F 71% 29.83 in 10.0 mi WNW 16.1 mph 24.2 mph N/A   Partly Cloudy
9:51 AM 57.9 °F - 42.1 °F 56% 29.82 in 10.0 mi NW 24.2 mph 34.5 mph N/A   Clear
10:51 AM 60.1 °F - 41.0 °F 49% 29.84 in 10.0 mi NW 24.2 mph 35.7 mph N/A   Mostly Cloudy
11:51 AM 61.0 °F - 41.0 °F 48% 29.84 in 10.0 mi NW 33.4 mph 41.4 mph N/A   Mostly Cloudy
12:51 PM 62.1 °F - 41.0 °F 46% 29.84 in 10.0 mi NW 31.1 mph 42.6 mph N/A   Scattered Clouds
1:51 PM 57.9 °F - 41.0 °F 53% 29.85 in 10.0 mi NW 28.8 mph 36.8 mph 0.00 in Rain Light Rain
2:51 PM 62.1 °F - 37.0 °F 39% 29.83 in 10.0 mi NW 29.9 mph 43.7 mph 0.00 in   Overcast
3:51 PM 61.0 °F - 39.0 °F 44% 29.83 in 10.0 mi NW 29.9 mph 39.1 mph 0.00 in   Mostly Cloudy
4:51 PM 59.0 °F - 37.0 °F 44% 29.85 in 10.0 mi NW 29.9 mph 39.1 mph 0.00 in   Overcast
5:51 PM 57.9 °F - 37.9 °F 47% 29.84 in 10.0 mi NW 17.3 mph - N/A   Mostly Cloudy
6:51 PM 55.9 °F - 37.0 °F 49% 29.84 in 10.0 mi NW 15.0 mph - N/A   Partly Cloudy
7:51 PM 53.1 °F - 36.0 °F 52% 29.85 in 10.0 mi NW 10.4 mph - N/A   Partly Cloudy
8:51 PM 52.0 °F - 36.0 °F 54% 29.84 in 10.0 mi NW 12.7 mph - N/A   Clear
9:51 PM 48.0 °F - 36.0 °F 63% 29.83 in 10.0 mi WNW 9.2 mph - N/A   Partly Cloudy
10:51 PM 45.0 °F 39.7 °F 36.0 °F 71% 29.82 in 10.0 mi West 10.4 mph - N/A   Mostly Cloudy
11:51 PM 46.9 °F - 36.0 °F 66% 29.79 in 10.0 mi West 13.8 mph - N/A   Partly Cloudy